Regional Weather Roundup
Issued by NWS Boston, MA

Current Version | Previous Version | Text Only | Print | Product List | Glossary Off
Versions: 1 2 3 4 5 6 7 8 9 10 11 12 13 14 15 16 17 18 19 20 21 22 23 24 25 26 27 28 29 30 31 32 33 34 35 36 37 38 39 40 41 42 43 44 45 46 47 48 49 50
506 ASUS41 KBOX 242010 RWRBOX REGIONAL WEATHER ROUNDUP NATIONAL WEATHER SERVICE TAUNTON MA 400 PM EDT SAT JUN 24 2017 NOTE: "FAIR" INDICATES FEW OR NO CLOUDS BELOW 12,000 FEET WITH NO SIGNIFICANT WEATHER AND/OR OBSTRUCTIONS TO VISIBILITY. MAZALL-242100- EASTERN MASSACHUSETTS CITY SKY/WX TMP DP RH WIND PRES REMARKS BOSTON MOSUNNY 87 61 41 W17G25 29.61R BEVERLY MOSUNNY 86 64 47 NW12G17 29.60R LAWRENCE MOSUNNY 87 60 40 W15G25 29.63R BEDFORD MOSUNNY 86 57 37 W18G24 29.62R BLUE HILL N/A 83 61 47 W15G29 29.65R NORWOOD MOSUNNY 87 62 43 W17G23 29.63R MARSHFIELD MOSUNNY 86 66 51 W8G18 29.61R PLYMOUTH MOSUNNY 84 64 50 W15G24 29.63R TAUNTON MOSUNNY 86 59 39 NW10G21 29.63R NEW BEDFORD MOSUNNY 84 66 54 W13G18 29.64R $$ MAZALL-242100- CAPE COD AND THE ISLANDS CITY SKY/WX TMP DP RH WIND PRES REMARKS FALMOUTH SUNNY 81 70 69 W12G17 29.65R HYANNIS MOSUNNY 80 73 79 SW10 29.62R CHATHAM SUNNY 78 73 84 SW9G17 29.64R PROVINCETOWN SUNNY 78 72 81 SW9 29.62R NANTUCKET MOSUNNY 73 69 87 W20G29 29.66R MARTHAS VNYRD MOSUNNY 81 70 69 SW12G20 29.66R $$ MAZALL-242100- CENTRAL AND WESTERN MASSACHUSETTS CITY SKY/WX TMP DP RH WIND PRES REMARKS WORCESTER SUNNY 80 57 45 W17G23 29.70R FITCHBURG MOSUNNY 85 59 41 W20 29.66R ORANGE MOSUNNY 81 59 47 W13 29.69R SPRINGFIELD PTSUNNY 84 56 37 W20G26 29.68R WESTFIELD SUNNY 82 54 37 W20G28 29.70R NORTH ADAMS MOSUNNY 78 58 49 W9G21 29.72R PITTSFIELD SUNNY 77 51 40 W18G29 29.76R $$ RIZALL-242100- RHODE ISLAND CITY SKY/WX TMP DP RH WIND PRES REMARKS PROVIDENCE MOSUNNY 85 62 46 W16G23 29.66R NEWPORT MOSUNNY 85 62 46 W12G18 29.66R BLOCK ISLAND SUNNY 78 62 57 W15G24 29.70R WESTERLY SUNNY 86 58 38 NW8 29.69R $$ CTZALL-242100- CONNECTICUT CITY SKY/WX TMP DP RH WIND PRES REMARKS BRADLEY INTL MOSUNNY 85 53 33 NW16G25 29.71R HARTFORD SUNNY 84 55 36 NW14G22 29.71R BRIDGEPORT SUNNY 89 55 31 NW16G23 29.72R DANBURY MOSUNNY 83 54 36 NW13 29.77R GROTON MOSUNNY 87 60 40 NW10G25 29.68R NEW HAVEN MOSUNNY 84 54 34 NW12G18 29.71R CHESTER FAIR 82 57 42 NW13 29.72R MERIDEN SUNNY 85 55 35 NW15G24 29.71R WILLIMANTIC SUNNY 85 55 35 W15G26 29.70R OXFORD MOSUNNY 81 54 39 NW12G21 29.78R $$ MEZ002-015-021-024-NHZ003-005-008-011-012-014-VTZ005-008-242100- NORTHERN NEW ENGLAND CITY SKY/WX TMP DP RH WIND PRES REMARKS PORTLAND ME MOSUNNY 84 60 44 NW13G20 29.59R BANGOR ME MOSUNNY 80 60 50 VRB7 29.55S CONCORD NH SUNNY 85 54 34 NW14G24 29.63R MANCHESTER NH MOSUNNY 87 52 29 W16G24 29.62R NASHUA NH MOSUNNY 86 58 38 W12G18 29.64R PORTSMOUTH NH MOSUNNY 85 64 47 NW12G18 29.60R JAFFREY NH MOSUNNY 81 51 35 W12 29.70R KEENE NH MOSUNNY 83 57 41 NW10 29.68R BURLINGTON VT MOSUNNY 82 55 39 SW8 29.64S MT. WASHINGTON FOG 48 48 100 W36G46 N/A VSB 0 $$ NYZ052-076-242100- EASTERN NEW YORK CITY SKY/WX TMP DP RH WIND PRES REMARKS ALBANY MOSUNNY 80 52 37 W21G32 29.74R NEW YORK CITY MOSUNNY 86 53 32 W21G29 29.76R $$ ANZALL-242100- MARINE OBSERVATIONS STATION/POSITION TIME TEMP WIND PRES VSBY WAVE AIR SEA DIR/SP/G HT/PER (UTC) (F) (DEG/KT/KT) (MB) (MI) (FT/S) BOSTON BUOY 1950 73 59 240/ 10/ 10 1002.5R 1/ 8 BUZZARDS BAY 1900 68 240/ 21/ 22 1003.9R NANTUCKET SOUND 1950 66 1003.1R 2/ 3 MASS BAY-STELLWA 1904 64 60 240/ 8/ 10 1001.1R 1/ 6 ISLE OF SHOALS 1900 76 310/ 10/ 11 1001.1R S OF BLOCK IS 1955 63 N/A 8/ 8 $$ ......................KEY......................... SKY/WX - SKY CONDITION/PRESENT WEATHER TMP - TEMPERATURE IN FAHRENHEIT DWPT - DEWPOINT IN FAHRENHEIT RH - RELATIVE HUMIDITY IN PERCENT WIND - DIRECTION AND SPEED IN MPH PRES - MEAN SEA LEVEL PRESSURE IN INCHES OF HG WCI - WIND CHILL INDEX VSB - VISIBILITY IN MILES HX - HEAT INDEX TC - TEMPERATURE IN CELSIUS VRB - VARIABLE WIND DIRECTION N/A - NOT AVAILABLE

USA.gov is the U.S. government's official web portal to all federal, state and local government web resources and services.